Location: Stara Lesna
(49.1528°N, 20.2911°E)
Time: 14:31:49
(UTC+02:00)

MOS 1-B Rocket - Pass Details

Date: 21 September 2019
Orbit: 890 x 1606 km, 99.1° (Epoch: 15 October)

Event Time Altitude Azimuth Distance (km) Brightness Sun altitude
Rises 03:09:39 0° 12° (NNE) 4,007 8.0 -29.6°
Reaches altitude 10° 03:12:26 10° 8° (N) 2,945 7.1 -29.3°
Enters shadow 03:18:22 50° 306° (NW) 1,249 4.4 -28.5°
